Regional Weather Roundup
Issued by NWS Charleston, SC

Current Version | Previous Version | Text Only | Print | Product List | Glossary Off
Versions: 1 2 3 4 5 6 7 8 9 10 11 12 13 14 15 16 17 18 19 20 21 22 23 24 25 26 27 28 29 30 31 32 33 34 35 36 37 38 39 40 41 42 43 44 45 46 47 48 49 50

000
ASUS42 KCHS 250111
RWRCHS

REGIONAL WEATHER ROUNDUP
NATIONAL WEATHER SERVICE CHARLESTON SC
800 PM EST FRI FEB 24 2017

NOTE: "FAIR" INDICATES FEW OR NO CLOUDS BELOW 12,000 FEET WITH NO
SIGNIFICANT WEATHER AND/OR OBSTRUCTIONS TO VISIBILITY.

NOT ALL STATIONS ARE QUALITY CONTROLLED. USE DATA WITH CAUTION...
ESPECIALLY DEWPOINT OBSERVATIONS.

SCZ027-030-031-034>040-042>050-250200-
...SOUTHEAST SOUTH CAROLINA...

CITY           SKY/WX    TMP DP  RH WIND       PRES   REMARKS
N CHARLESTON   CLEAR     65  58  78 SE8       29.84S
WATERFRONT PRK   N/A     64  62  93 VRB2      29.84S
MOUNT PLEASANT FAIR      63  61  94 CALM      29.85S
JOHNS ISLAND   FAIR      63  61  94 E5        29.85S
PINOPOLIS        N/A     68  61  77 VRB3      29.75S
MONCKS CORNER  FAIR      66  57  72 S3        29.84S
SUMMERVILLE    FAIR      68  59  73 CALM      29.85S
BEAUFORT MCAS  CLEAR     66  63  90 SE7       29.85S
BEAUFORT ARPT  FAIR      63  61  94 SE5       29.85S
HILTON HEAD IS NOT AVBL
WALTERBORO     CLEAR     66  59  77 S6        29.85S
ALLENDALE      FAIR      70  59  68 S6        29.82R

...SOUTHERN MIDLANDS AND PEE DEE...

CITY           SKY/WX    TMP DP  RH WIND       PRES   REMARKS
GEORGETOWN     FAIR      61  59  94 CALM      29.86S
KINGSTREE      FAIR      64  55  72 E3        29.84R
ORANGEBURG     CLEAR     63  57  81 E3        29.82S
BARNWELL       FAIR      66  59  77 CALM      29.82S
AIKEN          FAIR      63  54  72 SE3       29.85S
MANNING        FAIR      66  57  72 MISG      29.83S
COLUMBIA       CLEAR     72  53  51 S3        29.81S
SUMTER         CLEAR     66  56  70 CALM      29.80S
FLORENCE       CLEAR     66  58  75 SE7       29.84R
MYRTLE BEACH   NOT AVBL
N MYRTLE BEACH CLEAR     64  60  87 CALM      29.85S

$$

GAZ063-065-086>088-099>101-113>116-118-119-134>141-150-250200-
...SOUTHEAST GEORGIA...

CITY           SKY/WX    TMP DP  RH WIND       PRES   REMARKS
SAVANNAH ARPT  CLEAR     66  60  81 SE6       29.85S
HUNTER AAF     CLEAR     64  64 100 E5        29.83S
FORT STEWART   CLEAR     65  60  84 CALM      29.82S
STATESBORO     CLEAR     69  62  77 S6        29.82F
SYLVANIA       CLEAR    N/A N/A N/A S3        29.83F
CLAXTON        FAIR     N/A N/A N/A E5        29.83S

...CSRA...CENTRAL AND FAR SOUTHEAST GEORGIA...

CITY           SKY/WX    TMP DP  RH WIND       PRES   REMARKS
THOMSON        CLEAR     68  58  69 CALM      29.85S
AUGUSTA-BUSH   CLEAR     65  56  72 S5        29.80S
AUGUSTA-DANIEL CLEAR     73  51  46 CALM      29.81S
SWAINSBORO     FAIR      68  59  73 CALM      29.82S
VIDALIA        CLEAR     70  63  78 SE5       29.82S
EASTMAN        FAIR      69  49  48 CALM      29.84R
HAZLEHURST     FAIR      69  62  79 SE3       29.81S
ALMA           CLEAR     71  62  73 SE7       29.82S
WAYCROSS       CLEAR     74  68  81 SE8       29.83S
JESUP          FAIR      68  61  77 SE5       29.85S
BAXLEY         FAIR      72  64  78 SE6       29.82S
BRUNSWICK      CLEAR     63  63 100 E3        29.87S
SAINT SIMONS   CLEAR     64  62  93 E6        29.85F

$$

SCZ027-028-034-036>038-045-046-048>050-GAZ119-141-250200-
...LAKE AND SUPPLEMENTAL COASTAL OBSERVATIONS...

STATION/POSITION TIME  TEMP    WIND        PRES    WAVE   SWELL
                       AIR SEA DIR/SP/G            HT/PER HT/PER/DIR
                 (UTC) (F)     (DEG/KT/KT) (MB)    (FT/S) (FT/S/D)
WINYAH BAY       NOT AVBL
LAKE MURRAY      0020   68        CALM     1009.1R
ACE BASIN NERRS  NOT AVBL
FORT PULASKI     0048   64 63  120/  5/  6 1011.1S
SAPELO ISLAND    0000   65      80/  5     1011.0

$$

ANZ835-935-AMZ111-154-330-350-352-354-370-450-454-472-250200-
...C-MAN AND BUOY OBSERVATIONS...

STATION/POSITION TIME  TEMP    WIND        PRES    WAVE   SWELL
                       AIR SEA DIR/SP/G            HT/PER HT/PER/DIR
                 (UTC) (F)     (DEG/KT/KT) (MB)    (FT/S) (FT/S/D)
BUOY 41004       2350   69 71   30/ 10/ 12 1010.1    8/11   8/110/11
BUOY 41008       2350   63 63   40/  4/  4 1010.5    5/11   5/110/11
FOLLY BEACH CMAN 0000   63      90/  7/  7 1011.3F
CAPERS NEARSHORE 0008   62 60  110/  8/ 10 1010.5R
FRIPP NEARSHORE  0008   63 62  100/  6/  8 1010.4R


STATION/POSITION TIME  TEMP    WIND        PRES    WAVE   SWELL
                       AIR SEA DIR/SP/G            HT/PER HT/PER/DIR
                 (UTC) (F)     (DEG/KT/KT) (MB)    (FT/S) (FT/S/D)
5E ST. MARYS GA  0100      65                N/A     5/10   3/100/11
FRYING PAN BUOY  0050   71 72   40/ 10/ 14 1010.3S   7/ 9   7/130/ 9
BUOY 41025       0050   71 77  100/ 14/ 16 1010.7F   8/10   7/140/10
CAPE LOOKOUT NC  0000   66      50/  7/  7 1010.7R
BUOY 41002       0050   69 70   30/  6/  8 1007.4R  10/11  10/120/11
BUOY 41010       NOT AVBL
ST AUGUSTINE FL  0100   66 67  360/  7/  8 1012.2R


$$




USA.gov is the U.S. government's official web portal to all federal, state and local government web resources and services.